Location: Newark
(45.8667°N, 9.7333°E)
Time: 15:32:05
(UTC+00:00)

A-11 Canister half - Pass Details

Date: 23 January 2020
Orbit: 1517 x 1683 km, 47.2° (Epoch: 23 February)

Event Time Altitude Azimuth Distance (km) Brightness Sun altitude
Rises 01:31:42 0° 259° (W) 4,699 - -54.1°
Reaches altitude 10° 01:34:45 10° 260° (W) 3,702 - -53.7°
Maximum altitude 01:44:06 86° 350° (N) 1,525 - -52.4°
Exits shadow 01:49:38 29° 79° (ENE) 2,522 10.3 -51.5°
Drops below altitude 10° 01:53:25 10° 80° (E) 3,689 11.4 -51.0°
Sets 01:56:28 0° 81° (E) 4,682 12.1 -50.5°
